Retour au catalogue

ONEWEB-0135

ActifCommunicationsPO
NORAD 47281·PAYLOAD·🇬🇧 United Kingdom

Lancé Dec 18, 2020 depuis Vostochny Cosmodrome

Loading…

Prochains Passages (prochaines 24 heures)

TLE

FraisSource: CelesTrak SupGP

Époque: Sep 14, 2026, 20:23 UTC

1 47281C 20100Z   26257.84946019 -.00001362  00000+0 -37906-2 0  2575
2 47281  87.8973 332.8634 0001887  92.1080  10.0743 13.12440963    18

Suivez ONEWEB-0135 en temps réel avec AllMySat

Download on the App Store